Location: San Antonio
(29.4240°N, 98.4930°W)
Time: 14:32:09
(UTC-05:00)

Envisat - Visible Passes

Search period start: 18 May 2026 00:00
Search period end: 28 May 2026 00:00
Orbit: 761 x 762 km, 98.4° (Epoch: 18 May)

Date Brightness Start Highest point End Pass type
(mag) Time Alt. Az. Time Alt. Az. Time Alt. Az.
18 May 3.6 03:45:51 10° NNE 03:50:12 52° ENE 03:50:12 52° ENE visible
18 May 4.9 05:27:01 10° NW 05:29:11 13° WNW 05:30:20 12° W visible
19 May 5.1 03:09:04 10° NE 03:11:59 20° E 03:11:59 20° E visible
19 May 3.8 04:47:18 10° N 04:51:45 32° WNW 04:52:07 31° W visible
20 May 2.9 04:09:02 10° N 04:13:53 79° NW 04:13:53 79° NW visible
21 May 4.2 03:31:35 10° NNE 03:35:40 37° E 03:35:40 37° E visible
21 May 4.5 05:11:27 10° NNW 05:14:51 18° WNW 05:15:48 17° W visible
22 May 5.4 02:55:31 10° ENE 02:57:27 14° E 02:57:27 14° E visible
22 May 3.3 04:32:31 10° N 04:37:19 45° WNW 04:37:34 45° W visible
23 May 3.1 03:54:33 10° NNE 03:59:20 68° ENE 03:59:20 68° ENE visible
24 May 4.7 03:17:28 10° NE 03:21:07 26° E 03:21:07 26° E visible
24 May 4.1 04:56:21 10° NNW 05:00:27 26° WNW 05:01:14 25° W visible
25 May 2.9 04:17:51 10° N 04:22:51 65° WNW 04:23:00 65° W visible
26 May 3.7 03:40:11 10° NNE 03:44:46 47° E 03:44:46 47° E visible
26 May 4.8 05:20:47 10° NW 05:23:31 15° WNW 05:24:53 13° W visible
27 May 5.1 03:03:37 10° NE 03:06:32 18° E 03:06:32 18° E visible
27 May 3.6 04:41:27 10° N 04:46:03 36° WNW 04:46:40 35° W visible
